Time,TemperatureF,DewpointF,PressureIn,WindDirection,WindDirectionDegrees,WindSpeedMPH,WindSpeedGustMPH,Humidity,HourlyPrecipIn,Conditions,Clouds,dailyrainin,SoftwareType,DateUTC
2013-06-24 00:03:00,49.0,47.0,-100.00,WSW,246,10.0,13.0,94,0.00,,,-99.99,,2013-06-24 08:03:00,
2013-06-24 00:13:00,49.0,47.0,-100.00,WSW,246,10.0,13.0,94,0.00,,,-99.99,,2013-06-24 08:13:00,
2013-06-24 00:23:00,49.0,47.0,-100.00,WSW,246,10.0,13.0,94,0.00,,,-99.99,,2013-06-24 08:23:00,
2013-06-24 00:30:00,48.0,47.0,-100.00,WSW,239,8.0,12.0,97,0.00,,,-99.99,,2013-06-24 08:30:00,
2013-06-24 00:55:00,48.0,47.0,-100.00,WSW,239,8.0,12.0,97,0.00,,,-99.99,,2013-06-24 08:55:00,
2013-06-24 01:14:00,48.0,47.0,-100.00,WSW,239,8.0,12.0,97,0.00,,,-99.99,,2013-06-24 09:14:00,
2013-06-24 01:24:00,48.0,47.0,-100.00,WSW,239,8.0,12.0,97,0.00,,,-99.99,,2013-06-24 09:24:00,
2013-06-24 01:30:00,48.0,-99.9,-100.00,WSW,252,9.0,12.0,104,0.01,,,-99.99,,2013-06-24 09:30:00,
2013-06-24 02:00:00,48.0,-99.9,-100.00,WSW,252,9.0,12.0,104,0.01,,,-99.99,,2013-06-24 10:00:00,
2013-06-24 02:06:00,48.0,-99.9,-100.00,WSW,252,9.0,12.0,104,0.01,,,-99.99,,2013-06-24 10:06:00,
2013-06-24 02:15:00,48.0,-99.9,-100.00,WSW,252,9.0,12.0,104,0.01,,,-99.99,,2013-06-24 10:15:00,
2013-06-24 02:25:00,48.0,-99.9,-100.00,WSW,252,9.0,12.0,104,0.01,,,-99.99,,2013-06-24 10:25:00,
2013-06-24 02:30:00,47.0,-99.9,-100.00,WSW,239,7.0,10.0,107,0.00,,,-99.99,,2013-06-24 10:30:00,
2013-06-24 03:00:00,47.0,-99.9,-100.00,WSW,239,7.0,10.0,107,0.00,,,-99.99,,2013-06-24 11:00:00,
2013-06-24 03:30:00,47.0,-99.9,-100.00,WSW,237,6.0,9.0,110,0.00,,,-99.99,,2013-06-24 11:30:00,
2013-06-24 03:59:00,47.0,-99.9,-100.00,WSW,237,6.0,9.0,110,0.00,,,-99.99,,2013-06-24 11:59:00,
2013-06-24 04:07:00,47.0,-99.9,-100.00,WSW,237,6.0,9.0,110,0.00,,,-99.99,,2013-06-24 12:07:00,
2013-06-24 04:26:00,47.0,-99.9,-100.00,WSW,237,6.0,9.0,110,0.00,,,-99.99,,2013-06-24 12:26:00,
2013-06-24 04:30:00,47.0,-99.9,-100.00,WSW,249,5.0,7.0,112,0.00,,,-99.99,,2013-06-24 12:30:00,
2013-06-24 05:07:00,47.0,-99.9,-100.00,WSW,249,5.0,7.0,112,0.00,,,-99.99,,2013-06-24 13:07:00,
2013-06-24 05:15:00,47.0,-99.9,-100.00,WSW,249,5.0,7.0,112,0.00,,,-99.99,,2013-06-24 13:15:00,
2013-06-24 05:25:00,47.0,-99.9,-100.00,WSW,249,5.0,7.0,112,0.00,,,-99.99,,2013-06-24 13:25:00,
2013-06-24 05:30:00,47.0,-99.9,-100.00,WSW,239,4.0,7.0,113,0.01,,,-99.99,,2013-06-24 13:30:00,
2013-06-24 06:05:00,47.0,-99.9,-100.00,WSW,239,4.0,7.0,113,0.01,,,-99.99,,2013-06-24 14:05:00,
2013-06-24 06:16:00,47.0,-99.9,-100.00,WSW,239,4.0,7.0,113,0.01,,,-99.99,,2013-06-24 14:16:00,
2013-06-24 06:25:00,47.0,-99.9,-100.00,WSW,239,4.0,7.0,113,0.01,,,-99.99,,2013-06-24 14:25:00,
2013-06-24 06:30:00,47.0,-99.9,-100.00,WSW,247,4.0,5.0,115,0.02,,,-99.99,,2013-06-24 14:30:00,
2013-06-24 07:06:00,47.0,-99.9,-100.00,WSW,247,4.0,5.0,115,0.02,,,-99.99,,2013-06-24 15:06:00,
2013-06-24 07:16:00,47.0,-99.9,-100.00,WSW,247,4.0,5.0,115,0.02,,,-99.99,,2013-06-24 15:16:00,
2013-06-24 07:27:00,47.0,-99.9,-100.00,WSW,247,4.0,5.0,115,0.02,,,-99.99,,2013-06-24 15:27:00,
2013-06-24 07:30:00,47.0,-99.9,-100.00,WSW,254,2.0,4.0,116,0.00,,,-99.99,,2013-06-24 15:30:00,
2013-06-24 07:58:00,47.0,-99.9,-100.00,WSW,254,2.0,4.0,116,0.00,,,-99.99,,2013-06-24 15:58:00,
2013-06-24 08:05:00,47.0,-99.9,-100.00,WSW,254,2.0,4.0,116,0.00,,,-99.99,,2013-06-24 16:05:00,
2013-06-24 08:15:00,47.0,-99.9,-100.00,WSW,254,2.0,4.0,116,0.00,,,-99.99,,2013-06-24 16:15:00,
2013-06-24 08:25:00,47.0,-99.9,-100.00,WSW,254,2.0,4.0,116,0.00,,,-99.99,,2013-06-24 16:25:00,
2013-06-24 08:30:00,48.0,-99.9,-100.00,South,176,1.0,2.0,117,0.00,,,-99.99,,2013-06-24 16:30:00,
2013-06-24 09:15:00,48.0,-99.9,-100.00,South,176,1.0,2.0,117,0.00,,,-99.99,,2013-06-24 17:15:00,
2013-06-24 09:26:00,48.0,-99.9,-100.00,South,176,1.0,2.0,117,0.00,,,-99.99,,2013-06-24 17:26:00,
2013-06-24 09:30:00,48.0,-99.9,-100.00,NE,47,2.0,3.0,118,0.00,,,-99.99,,2013-06-24 17:30:00,
2013-06-24 09:58:00,48.0,-99.9,-100.00,NE,47,2.0,3.0,118,0.00,,,-99.99,,2013-06-24 17:58:00,
2013-06-24 10:15:00,48.0,-99.9,-100.00,NE,47,2.0,3.0,118,0.00,,,-99.99,,2013-06-24 18:15:00,
2013-06-24 10:27:00,48.0,-99.9,-100.00,NE,47,2.0,3.0,118,0.00,,,-99.99,,2013-06-24 18:27:00,
2013-06-24 10:30:00,50.0,-99.9,-100.00,North,10,3.0,4.0,117,0.00,,,-99.99,,2013-06-24 18:30:00,
2013-06-24 11:07:00,50.0,-99.9,-100.00,North,10,3.0,4.0,117,0.00,,,-99.99,,2013-06-24 19:07:00,
2013-06-24 11:26:00,50.0,-99.9,-100.00,North,10,3.0,4.0,117,0.00,,,-99.99,,2013-06-24 19:26:00,
2013-06-24 11:30:00,50.0,-99.9,-100.00,ESE,106,3.0,5.0,112,0.00,,,-99.99,,2013-06-24 19:30:00,
2013-06-24 12:06:00,50.0,-99.9,-100.00,ESE,106,3.0,5.0,112,0.00,,,-99.99,,2013-06-24 20:06:00,
2013-06-24 12:13:00,50.0,-99.9,-100.00,ESE,106,3.0,5.0,112,0.00,,,-99.99,,2013-06-24 20:13:00,
2013-06-24 12:24:00,50.0,-99.9,-100.00,ESE,106,3.0,5.0,112,0.00,,,-99.99,,2013-06-24 20:24:00,
2013-06-24 12:30:00,52.0,-99.9,-100.00,NE,39,2.0,5.0,104,0.00,,,-99.99,,2013-06-24 20:30:00,
2013-06-24 13:05:00,52.0,-99.9,-100.00,NE,39,2.0,5.0,104,0.00,,,-99.99,,2013-06-24 21:05:00,
2013-06-24 13:15:00,52.0,-99.9,-100.00,NE,39,2.0,5.0,104,0.00,,,-99.99,,2013-06-24 21:15:00,
2013-06-24 13:26:00,52.0,-99.9,-100.00,NE,39,2.0,5.0,104,0.00,,,-99.99,,2013-06-24 21:26:00,
2013-06-24 14:04:00,53.0,51.0,-100.00,WSW,253,6.0,8.0,94,0.00,,,-99.99,,2013-06-24 22:04:00,
2013-06-24 14:13:00,53.0,51.0,-100.00,WSW,253,6.0,8.0,94,0.00,,,-99.99,,2013-06-24 22:13:00,
2013-06-24 14:22:00,53.0,51.0,-100.00,WSW,253,6.0,8.0,94,0.00,,,-99.99,,2013-06-24 22:22:00,
2013-06-24 14:30:00,53.0,51.0,-100.00,WSW,252,11.0,13.0,94,0.00,,,-99.99,,2013-06-24 22:30:00,
2013-06-24 15:11:00,53.0,51.0,-100.00,WSW,252,11.0,13.0,94,0.00,,,-99.99,,2013-06-24 23:11:00,
2013-06-24 15:23:00,53.0,51.0,-100.00,WSW,252,11.0,13.0,94,0.00,,,-99.99,,2013-06-24 23:23:00,
2013-06-24 15:30:00,53.0,52.0,-100.00,WSW,249,10.0,14.0,96,0.00,,,-99.99,,2013-06-24 23:30:00,
2013-06-24 16:02:00,53.0,52.0,-100.00,WSW,249,10.0,14.0,96,0.00,,,-99.99,,2013-06-25 00:02:00,
2013-06-24 16:12:00,53.0,52.0,-100.00,WSW,249,10.0,14.0,96,0.00,,,-99.99,,2013-06-25 00:12:00,
2013-06-24 16:22:00,53.0,52.0,-100.00,WSW,249,10.0,14.0,96,0.00,,,-99.99,,2013-06-25 00:22:00,
2013-06-24 16:30:00,52.0,51.0,-100.00,WSW,248,11.0,15.0,95,0.00,,,-99.99,,2013-06-25 00:30:00,
2013-06-24 17:03:00,52.0,51.0,-100.00,WSW,248,11.0,15.0,95,0.00,,,-99.99,,2013-06-25 01:03:00,
2013-06-24 17:22:00,52.0,51.0,-100.00,WSW,248,11.0,15.0,95,0.00,,,-99.99,,2013-06-25 01:22:00,
2013-06-24 18:30:00,53.0,50.0,-100.00,WSW,246,10.0,14.0,92,0.00,,,-99.99,,2013-06-25 02:30:00,
2013-06-24 19:04:00,53.0,50.0,-100.00,WSW,246,10.0,14.0,92,0.00,,,-99.99,,2013-06-25 03:04:00,
2013-06-24 19:12:00,53.0,50.0,-100.00,WSW,246,10.0,14.0,92,0.00,,,-99.99,,2013-06-25 03:12:00,
2013-06-24 19:24:00,53.0,50.0,-100.00,WSW,246,10.0,14.0,92,0.00,,,-99.99,,2013-06-25 03:24:00,
2013-06-24 20:30:00,51.0,51.0,-100.00,WSW,248,12.0,15.0,97,0.00,,,-99.99,,2013-06-25 04:30:00,
2013-06-24 21:01:00,51.0,51.0,-100.00,WSW,248,12.0,15.0,97,0.00,,,-99.99,,2013-06-25 05:01:00,
2013-06-24 21:11:00,51.0,51.0,-100.00,WSW,248,12.0,15.0,97,0.00,,,-99.99,,2013-06-25 05:11:00,
2013-06-24 21:22:00,51.0,51.0,-100.00,WSW,248,12.0,15.0,97,0.00,,,-99.99,,2013-06-25 05:22:00,
2013-06-24 21:30:00,51.0,50.0,-100.00,WSW,244,7.0,10.0,95,0.00,,,-99.99,,2013-06-25 05:30:00,
2013-06-24 22:01:00,51.0,50.0,-100.00,WSW,244,7.0,10.0,95,0.00,,,-99.99,,2013-06-25 06:01:00,
2013-06-24 22:11:00,51.0,50.0,-100.00,WSW,244,7.0,10.0,95,0.00,,,-99.99,,2013-06-25 06:11:00,
2013-06-24 22:21:00,51.0,50.0,-100.00,WSW,244,7.0,10.0,95,0.00,,,-99.99,,2013-06-25 06:21:00,
2013-06-24 22:30:00,51.0,49.0,-100.00,WSW,249,6.0,9.0,91,0.00,,,-99.99,,2013-06-25 06:30:00,
2013-06-24 23:02:00,51.0,49.0,-100.00,WSW,249,6.0,9.0,91,0.00,,,-99.99,,2013-06-25 07:02:00,
2013-06-24 23:11:00,51.0,49.0,-100.00,WSW,249,6.0,9.0,91,0.00,,,-99.99,,2013-06-25 07:11:00,
2013-06-24 23:22:00,51.0,49.0,-100.00,WSW,249,6.0,9.0,91,0.00,,,-99.99,,2013-06-25 07:22:00,
2013-06-24 23:30:00,51.0,49.0,-100.00,WSW,250,4.0,7.0,95,0.00,,,-99.99,,2013-06-25 07:30:00,
2013-06-24 23:52:00,51.0,49.0,-100.00,WSW,250,4.0,7.0,95,0.00,,,-99.99,,2013-06-25 07:52:00,